Погода в Новоандреевке

Россия / Тюменская область     55°51′17″N   70°26′35″E
темп.,
°C
ветер,
м/с
пор.,
м/с
влажн.,
%
обл.,
%
осадки,
мм/ч
давл.,
гПа
погр.,
м
7 марта, вс
вс723:00−14зюз510940 0.0 1011188
02:00−15юз5119412 0.0 1012188
05:00−16юз499628 0.0 1013144
08:00−16юз469684 0.0 1014125
11:00−11юз349391 0.0 1015241
14:00−8юв3492100 0.0 1013330
17:00−8юв6995100 0.4 1009467
20:00−7вюв81495100 2.8 1003564
8 марта, пн
пн823:00+1ююз91598100 4.8 999898
02:000юз91597100 0.8 997834
05:00−9зсз61193100 1.8 999419
08:00−13зсз61194100 0.0 1003327
11:00−10зсз6109199 0.0 1007494
14:00−10з698699 0.0 1009752
17:00−12зюз5108884 0.0 1011487
20:00−13юз5109199 0.0 1013326
9 марта, вт
вт923:00−13ююз6129397 0.1 1013528
02:00−11ююз71492100 0.3 1012611
05:00−10юз81591100 0.4 1011581
08:00−10юз71492100 0.1 1011524
11:00−7юз71192100 0.1 1012537
14:00−6юз71091100 0.1 1013548
17:00−7ююз61092100 0.1 1012530
20:00−7ююз61391100 0.1 1011521
10 марта, ср
ср1023:00−8ююз71490100 0.1 1009504
02:00−8юз71391100 0.1 1008561
05:00−8юз51192100 0.1 1007386
08:00−8юз4995100 0.0 1005304
11:00−6юз3494100 0.1 1004367
14:00−4юз1288100 0.1 1002407
17:00−5сз2291100 0.3 1000236
20:00−8с2295100 0.0 100025
11 марта, чт
чт1123:00−9с1296100 0.2 100021
02:00−10ссв3496100 0.7 999143
05:00−13с5895100 1.7 1000272
08:00−16сз6995100 0.6 1004393
11:00−16зсз5792100 0.8 1008419
14:00−14з4690100 0.1 1011529
17:00−14зюз4791100 0.1 1012720
20:00−16зюз3696100 0.1 1013188